Location: Maddington
(51.2000°N, 1.9167°W)
Time: 15:37:05
(UTC+00:00)

Cosmos 1125 Rocket - Pass Details

Date: 27 June 2021
Orbit: 757 x 780 km, 74.0° (Epoch: 28 July)

Event Time Altitude Azimuth Distance (km) Brightness Sun altitude
Rises 23:31:04 0° 339° (NNW) 3,249 8.5 -15.0°
Reaches altitude 10° 23:33:48 10° 352° (N) 2,323 7.4 -15.1°
Maximum altitude 23:38:16 27° 50° (NE) 1,455 5.3 -15.2°
Drops below altitude 10° 23:42:44 10° 108° (ESE) 2,325 5.8 -15.3°
Enters shadow 23:44:25 - 116° (ESE) 2,883 6.2 -15.3°
